This is the latest recevied weather packets stored in our database for station/object NO9B. If no packets are shown the sender has not sent any weather packets the latest 10 day(s).
| Time | Temp. | Humidity | Pressure | Rain* | Wind** | Luminosity | Snow |
|---|---|---|---|---|---|---|---|
| 1787783016 | 29.44° C | 54% | 1012.7 hPa | 0 mm | - | 95 W/m² | - |
| 1787782714 | 28.89° C | 55% | 1012.7 hPa | 0 mm | - | 166 W/m² | - |
| 1787782410 | 28.33° C | 56% | 1012.9 hPa | 0 mm | - | 188 W/m² | - |
| 1787782106 | 28.33° C | 56% | 1012.7 hPa | 0 mm | - | 37 W/m² | - |
| 1787781801 | 29.44° C | 53% | 1012.7 hPa | 0 mm | - | 35 W/m² | - |
| 1787781499 | 29.44° C | 54% | 1012.7 hPa | 0 mm | - | 65 W/m² | - |
| 1787781198 | 29.44° C | 50% | 1012.8 hPa | 0 mm | - | 254 W/m² | - |
| 1787780897 | 29.44° C | 48% | 1012.7 hPa | 0 mm | - | 273 W/m² | - |
| 1787780592 | 29.44° C | 49% | 1012.7 hPa | 0 mm | - | 285 W/m² | - |
| 1787780287 | 30° C | 52% | 1012.9 hPa | 0 mm | - | 295 W/m² | - |
| 1787779983 | 29.44° C | 50% | 1012.9 hPa | 0 mm | - | 309 W/m² | - |
| 1787779677 | 30° C | 49% | 1012.9 hPa | 0 mm | - | 316 W/m² | - |
| 1787779376 | 30° C | 52% | 1012.8 hPa | 0 mm | - | 332 W/m² | - |
| 1787779072 | 28.89° C | 51% | 1012.8 hPa | 0 mm | - | 350 W/m² | - |
| 1787778772 | 28.89° C | 50% | 1013 hPa | 0 mm | - | 357 W/m² | - |
| 1787778468 | 30° C | 48% | 1012.9 hPa | 0 mm | - | 365 W/m² | - |
| 1787778163 | 30.56° C | 49% | 1012.8 hPa | 0 mm | - | 376 W/m² | - |
| 1787777863 | 30° C | 51% | 1012.8 hPa | 0 mm | - | 400 W/m² | - |
| 1787777560 | 30.56° C | 53% | 1012.7 hPa | 0 mm | - | 398 W/m² | - |
| 1787777260 | 30.56° C | 50% | 1012.7 hPa | 0 mm | - | 409 W/m² | - |
| 1787776959 | 30.56° C | 50% | 1012.8 hPa | 0 mm | - | 423 W/m² | - |
| 1787776658 | 30° C | 53% | 1012.8 hPa | 0 mm | - | 456 W/m² | - |
| 1787776357 | 30° C | 53% | 1012.8 hPa | 0 mm | - | 473 W/m² | - |
| 1787776056 | 30° C | 54% | 1012.8 hPa | 0 mm | - | 457 W/m² | - |
| 1787775751 | 30° C | 55% | 1012.9 hPa | 0 mm | - | 464 W/m² | - |
* Rain latest hour (hover to see other rain measurements)
** Current wind speed in m/s (hover to see current wind gust speed)